EW7349 Weather Reports


time (UTC)temp
C
wind
direction
speed
KPH
gust
KPH
rain 1hr
cm
rain 24hr
cm
rain mn
cm
humidity
%
barometer
mb
20230208163045 18 132 3.2 6.4 0.00 0.00 0.00 50 1024.1
20230208162537 17 92 3.2 6.4 0.00 0.00 0.00 52 1024.2
20230208162033 16 76 1.6 6.4 0.00 0.00 0.00 54 1024.2
20230208161527 16 348 1.6 6.4 0.00 0.00 0.00 53 1024.3
20230208161254 16 5 3.2 9.7 0.00 0.00 0.00 51 1024.3
20230208160744 17 355 3.2 11.3 0.00 0.00 0.00 52 1024.3
20230208160008 16 92 1.6 11.3 0.00 0.00 0.00 54 1024.1
20230208155503 16 103 1.6 9.7 0.00 0.00 0.00 53 1024.1
20230208154956 16 98 1.6 6.4 0.00 0.00 0.00 54 1024.0
20230208154451 15 42 1.6 6.4 0.00 0.00 0.00 54 1024.0
20230208153944 15 355 1.6 6.4 0.00 0.00 0.00 55 1024.1
20230208153437 15 346 1.6 6.4 0.00 0.00 0.00 55 1024.0
20230208152931 15 72 1.6 6.4 0.00 0.00 0.00 55 1024.0
20230208152426 14 252 1.6 4.8 0.00 0.00 0.00 56 1024.0
20230208151921 14 96 1.6 3.2 0.00 0.00 0.00 55 1023.9
20230208151414 14 169 0.0 3.2 0.00 0.00 0.00 55 1023.9
20230208150908 13 274 1.6 6.4 0.00 0.00 0.00 56 1023.9
20230208150402 12 82 1.6 6.4 0.00 0.00 0.00 59 1024.0
20230208145856 11 192 1.6 3.2 0.00 0.00 0.00 63 1023.9
20230208145350 10 252 1.6 4.8 0.00 0.00 0.00 65 1023.9
20230208144844 10 291 1.6 3.2 0.00 0.00 0.00 66 1023.8
20230208144338 10 221 1.6 3.2 0.00 0.00 0.00 68 1023.7
20230208143832 10 255 1.6 4.8 0.00 0.00 0.00 70 1023.8
20230208143325 9 267 0.0 4.8 0.00 0.00 0.00 71 1023.6
20230208142820 9 217 0.0 3.2 0.00 0.00 0.00 72 1023.5
20230208142314 8 155 0.0 1.6 0.00 0.00 0.00 74 1023.5
20230208141808 8 155 0.0 1.6 0.00 0.00 0.00 73 1023.6
20230208141309 8 155 0.0 3.2 0.00 0.00 0.00 72 1023.4
20230208140808 8 155 0.0 3.2 0.00 0.00 0.00 72 1023.4
20230208140539 8 284 0.0 1.6 0.00 0.00 0.00 72 1023.4
20230208135806 8 284 0.0 1.6 0.00 0.00 0.00 75 1023.4
20230208135306 7 284 0.0 0.0 0.00 0.00 0.00 75 1023.3
20230208134802 7 284 1.6 3.2 0.00 0.00 0.00 75 1023.4
20230208134531 7 284 1.6 3.2 0.00 0.00 0.00 75 1023.1
20230208133758 7 175 0.0 0.0 0.00 0.00 0.00 75 1023.2
20230208133258 7 175 0.0 0.0 0.00 0.00 0.00 75 1023.1
20230208132754 7 175 0.0 0.0 0.00 0.00 0.00 74 1023.0
20230208132522 7 175 0.0 0.0 0.00 0.00 0.00 74 1023.0
20230208132411 7 175 0.0 0.0 0.00 0.00 0.00 74 1022.9
20230208131246 7 175 0.0 1.6 0.00 0.00 0.00 74 1022.8
20230208130747 7 175 0.0 1.6 0.00 0.00 0.00 73 1022.7
20230208130244 7 175 0.0 4.8 0.00 0.00 0.00 73 1022.5
20230208125741 7 175 0.0 4.8 0.00 0.00 0.00 73 1022.5
20230208125240 7 136 0.0 0.0 0.00 0.00 0.00 72 1022.6
20230208124737 7 136 0.0 1.6 0.00 0.00 0.00 72 1022.5
20230208124234 7 135 0.0 3.2 0.00 0.00 0.00 72 1022.4
20230208123735 7 135 1.6 4.8 0.00 0.00 0.00 71 1022.2
20230208123234 7 119 3.2 4.8 0.00 0.00 0.00 71 1022.2
20230208122735 7 95 1.6 4.8 0.00 0.00 0.00 70 1022.3
20230208122228 7 85 0.0 3.2 0.00 0.00 0.00 69 1022.0
20230208121956 7 108 0.0 0.0 0.00 0.00 0.00 69 1021.9
20230208121217 7 109 0.0 0.0 0.00 0.00 0.00 68 1021.8
20230208120711 7 115 0.0 0.0 0.00 0.00 0.00 67 1021.6
20230208120209 7 115 0.0 0.0 0.00 0.00 0.00 67 1021.5
20230208115709 7 115 0.0 0.0 0.00 0.00 0.00 67 1021.5
20230208115209 8 115 0.0 0.0 0.00 0.00 0.00 66 1021.2
20230208114711 8 115 0.0 0.0 0.00 0.00 0.00 66 1021.2
20230208114207 8 115 0.0 0.0 0.00 0.00 0.00 66 1021.3
20230208113707 8 115 0.0 0.0 0.00 0.00 0.00 66 1021.1
20230208113208 8 115 0.0 0.0 0.00 0.00 0.00 66 1021.1
20230208112707 8 115 0.0 0.0 0.00 0.00 0.00 66 1021.0
20230208112207 8 115 0.0 3.2 0.00 0.00 0.00 66 1021.0
20230208111704 8 115 0.0 3.2 0.00 0.00 0.00 66 1021.1
20230208111204 8 114 0.0 3.2 0.00 0.00 0.00 66 1020.9
20230208110704 8 121 0.0 1.6 0.00 0.00 0.00 66 1020.8
20230208110203 8 121 0.0 1.6 0.00 0.00 0.00 66 1020.7
20230208105704 8 80 0.0 0.0 0.00 0.00 0.00 66 1020.5
20230208105205 8 80 0.0 0.0 0.00 0.00 0.00 66 1020.4
20230208104704 8 80 0.0 0.0 0.00 0.00 0.00 67 1020.3
20230208104204 8 80 0.0 0.0 0.00 0.00 0.00 67 1020.3
20230208103704 8 80 0.0 0.0 0.00 0.00 0.00 67 1020.2
20230208103159 8 80 0.0 0.0 0.00 0.00 0.00 68 1020.1
20230208102658 8 80 0.0 0.0 0.00 0.00 0.00 66 1020.1
20230208102200 8 80 0.0 0.0 0.00 0.00 0.00 66 1020.2
20230208101659 8 80 0.0 0.0 0.00 0.00 0.00 66 1020.2
20230208101158 8 80 0.0 0.0 0.00 0.00 0.00 65 1020.1
20230208100701 8 80 0.0 0.0 0.00 0.00 0.00 64 1020.2
20230208100433 8 80 0.0 0.0 0.00 0.00 0.00 64 1020.1
20230208095930 8 80 0.0 0.0 0.00 0.00 0.00 64 1020.1
20230208095200 8 80 0.0 0.0 0.00 0.00 0.00 64 1020.1
20230208094653 8 80 0.0 0.0 0.00 0.00 0.00 64 1020.1
20230208094148 8 80 0.0 0.0 0.00 0.00 0.00 64 1020.1
20230208093641 9 80 0.0 0.0 0.00 0.00 0.00 63 1019.9
20230208093134 9 80 0.0 0.0 0.00 0.00 0.00 63 1019.9
20230208092900 9 80 0.0 0.0 0.00 0.00 0.00 62 1019.9
20230208092123 9 80 0.0 0.0 0.00 0.00 0.00 62 1020.0
20230208091618 9 80 0.0 0.0 0.00 0.00 0.00 62 1019.9
20230208091343 9 80 0.0 0.0 0.00 0.00 0.00 62 1019.9
20230208090606 9 80 0.0 0.0 0.00 0.00 0.00 61 1019.8
20230208090059 9 80 0.0 0.0 0.00 0.00 0.00 61 1019.9
20230208085558 9 80 0.0 0.0 0.00 0.00 0.00 61 1019.8
20230208085056 10 80 0.0 1.6 0.00 0.00 0.00 61 1019.7
20230208084556 10 80 0.0 1.6 0.00 0.00 0.00 60 1019.7
20230208084058 10 80 0.0 1.6 0.00 0.00 0.00 61 1019.7
20230208083555 10 80 0.0 1.6 0.00 0.00 0.00 60 1019.7
20230208083055 10 80 0.0 0.0 0.00 0.00 0.00 59 1019.6
20230208082551 10 80 0.0 0.0 0.00 0.00 0.00 59 1019.6
20230208082053 10 80 0.0 1.6 0.00 0.00 0.00 59 1019.7
20230208081550 10 80 0.0 3.2 0.00 0.00 0.00 59 1019.7
20230208081050 10 80 0.0 3.2 0.00 0.00 0.00 59 1019.9
20230208080550 10 80 0.0 0.0 0.00 0.00 0.00 58 1019.7
20230208080050 10 80 0.0 3.2 0.00 0.00 0.00 58 1019.7
20230208075546 10 88 1.6 4.8 0.00 0.00 0.00 59 1019.7
20230208075045 10 91 3.2 6.4 0.00 0.00 0.00 58 1019.8
20230208074545 10 104 3.2 6.4 0.00 0.00 0.00 58 1019.9
20230208074045 10 76 1.6 6.4 0.00 0.00 0.00 58 1019.7
20230208073819 11 79 3.2 6.4 0.00 0.00 0.00 58 1019.7
20230208073316 11 38 1.6 9.7 0.00 0.00 0.00 57 1019.3
20230208072816 10 315 1.6 9.7 0.00 0.00 0.00 57 1019.3
20230208072039 10 191 1.6 6.4 0.00 0.00 0.00 57 1019.2
20230208071532 10 290 3.2 6.4 0.00 0.00 0.00 58 1019.3
20230208071026 10 315 3.2 6.4 0.00 0.00 0.00 58 1019.3
20230208070520 10 304 1.6 4.8 0.00 0.00 0.00 57 1019.3
20230208070015 10 282 1.6 8.0 0.00 0.00 0.00 58 1019.3
20230208065508 10 294 3.2 9.7 0.00 0.00 0.00 57 1019.3
20230208065235 10 279 3.2 9.7 0.00 0.00 0.00 58 1019.4
20230208064457 10 295 1.6 4.8 0.00 0.00 0.00 58 1019.4
20230208063951 10 292 1.6 4.8 0.00 0.00 0.00 58 1019.4
20230208063445 10 290 1.6 9.7 0.00 0.00 0.00 58 1019.4
20230208062939 10 316 1.6 9.7 0.00 0.00 0.00 58 1019.4
20230208062934 10 329 1.6 11.3 0.00 0.00 0.00 57 1019.5
20230208061927 10 302 1.6 11.3 0.00 0.00 0.00 58 1019.4
20230208061422 10 276 1.6 4.8 0.00 0.00 0.00 58 1019.3
20230208060916 10 284 1.6 9.7 0.00 0.00 0.00 57 1019.3
20230208060409 10 306 1.6 9.7 0.00 0.00 0.00 58 1019.3
20230208060133 10 277 1.6 4.8 0.00 0.00 0.00 58 1019.4
20230208055357 10 267 1.6 8.0 0.00 0.00 0.00 58 1019.4
20230208054851 10 295 1.6 8.0 0.00 0.00 0.00 58 1019.4
20230208054346 10 313 1.6 4.8 0.00 0.00 0.00 58 1019.3
20230208053839 10 295 1.6 4.8 0.00 0.00 0.00 57 1019.4
20230208053605 10 278 1.6 11.3 0.00 0.00 0.00 58 1019.5
20230208052827 10 292 3.2 11.3 0.00 0.00 0.00 57 1019.5
20230208052321 10 271 1.6 6.4 0.00 0.00 0.00 58 1019.5
20230208051816 10 304 1.6 6.4 0.00 0.00 0.00 58 1019.5
20230208051309 10 267 1.6 9.7 0.00 0.00 0.00 58 1019.5
20230208051035 10 284 1.6 9.7 0.00 0.00 0.00 58 1019.6
20230208050759 10 304 1.6 9.7 0.00 0.00 0.00 57 1019.6
20230208045752 10 325 1.6 9.7 0.00 0.00 0.00 58 1019.6
20230208045747 10 284 1.6 11.3 0.00 0.00 0.00 57 1019.6
20230208044739 10 302 1.6 11.3 0.00 0.00 0.00 57 1019.6
20230208044234 10 305 1.6 6.4 0.00 0.00 0.00 57 1019.5
20230208043727 10 260 1.6 6.4 0.00 0.00 0.00 58 1019.5
20230208043220 10 286 1.6 6.4 0.00 0.00 0.00 58 1019.5
20230208042210 10 291 3.2 8.0 0.00 0.00 0.00 58 1019.7
20230208042205 10 280 1.6 8.0 0.00 0.00 0.00 59 1019.7
20230208041156 10 273 3.2 6.4 0.00 0.00 0.00 59 1019.8
20230208040652 10 304 3.2 8.0 0.00 0.00 0.00 59 1019.7
20230208040146 10 313 1.6 8.0 0.00 0.00 0.00 60 1019.7
20230208035639 10 321 1.6 11.3 0.00 0.00 0.00 60 1019.8
20230208035133 10 291 1.6 11.3 0.00 0.00 0.00 60 1019.7
20230208034627 10 261 1.6 8.0 0.00 0.00 0.00 61 1019.8
20230208034121 10 272 1.6 8.0 0.00 0.00 0.00 61 1019.9
20230208033616 10 302 0.0 6.4 0.00 0.00 0.00 61 1019.9
20230208033109 10 251 0.0 3.2 0.00 0.00 0.00 61 1020.0
20230208032834 10 249 0.0 3.2 0.00 0.00 0.00 62 1020.0
20230208032057 10 229 1.6 6.4 0.00 0.00 0.00 62 1020.0
20230208031551 10 311 1.6 6.4 0.00 0.00 0.00 61 1020.0
20230208031045 10 248 1.6 11.3 0.00 0.00 0.00 62 1020.1
20230208030542 10 256 1.6 11.3 0.00 0.00 0.00 62 1020.2
20230208030536 9 200 1.6 6.4 0.00 0.00 0.00 62 1020.3
20230208025526 9 277 1.6 3.2 0.00 0.00 0.00 62 1020.4
20230208025021 9 251 1.6 6.4 0.00 0.00 0.00 62 1020.4
20230208024515 9 323 1.6 6.4 0.00 0.00 0.00 62 1020.5
20230208024009 9 232 1.6 4.8 0.00 0.00 0.00 62 1020.7
20230208023733 9 221 0.0 4.8 0.00 0.00 0.00 63 1020.7
20230208022956 9 258 0.0 1.6 0.00 0.00 0.00 63 1020.5
20230208022451 9 257 0.0 6.4 0.00 0.00 0.00 63 1020.7
20230208021946 9 273 1.6 6.4 0.00 0.00 0.00 63 1020.7
20230208021438 8 195 1.6 9.7 0.00 0.00 0.00 64 1020.4
20230208020933 8 265 0.0 9.7 0.00 0.00 0.00 64 1020.3
20230208020426 8 262 1.6 4.8 0.00 0.00 0.00 64 1020.4
20230208015921 8 207 0.0 3.2 0.00 0.00 0.00 64 1020.5
20230208015414 8 211 0.0 3.2 0.00 0.00 0.00 64 1020.5
20230208014909 8 220 1.6 3.2 0.00 0.00 0.00 64 1020.5
20230208014403 8 311 0.0 3.2 0.00 0.00 0.00 65 1020.4
20230208013857 8 271 0.0 4.8 0.00 0.00 0.00 64 1020.5
20230208013351 8 255 0.0 6.4 0.00 0.00 0.00 65 1020.7
20230208012846 8 246 0.0 6.4 0.00 0.00 0.00 65 1020.8
20230208012612 8 270 0.0 4.8 0.00 0.00 0.00 64 1020.9
20230208011841 8 245 0.0 3.2 0.00 0.00 0.00 65 1021.0
20230208011337 8 269 0.0 3.2 0.00 0.00 0.00 64 1020.9
20230208010835 8 266 0.0 3.2 0.00 0.00 0.00 64 1021.0
20230208010337 8 286 0.0 3.2 0.00 0.00 0.00 64 1020.9
20230208010106 8 286 0.0 3.2 0.00 0.00 0.00 64 1021.0
20230208005332 8 301 0.0 1.6 0.00 0.00 0.00 64 1021.0
20230208004832 8 334 0.0 4.8 0.00 0.00 0.00 63 1021.1
20230208004333 8 336 0.0 4.8 0.00 0.00 0.00 63 1021.1
20230208003833 8 213 0.0 0.0 0.00 0.00 0.00 63 1021.0
20230208003333 8 213 0.0 0.0 0.00 0.00 0.00 62 1021.1
20230208002832 8 215 0.0 0.0 0.00 0.00 0.00 62 1021.2
20230208002332 8 215 0.0 0.0 0.00 0.00 0.00 61 1021.2
20230208001832 8 215 0.0 0.0 0.00 0.00 0.00 61 1021.2
20230208001607 9 215 0.0 3.2 0.00 0.00 0.00 61 1021.1
20230208001104 9 215 1.6 3.2 0.00 0.00 0.00 61 1021.1
20230208000331 9 215 0.0 3.2 0.00 0.00 0.00 60 1021.2
20230207235827 9 215 0.0 3.2 0.00 0.00 0.00 60 1021.2
20230207235329 9 215 0.0 0.0 0.00 0.00 0.00 59 1021.3
20230207234823 9 215 0.0 3.2 0.00 0.00 0.00 59 1021.2
20230207234318 10 215 0.0 3.2 0.00 0.00 0.00 58 1021.2
20230207233811 10 215 0.0 0.0 0.00 0.00 0.00 58 1021.2
20230207233537 10 215 0.0 0.0 0.00 0.00 0.00 57 1021.2
20230207232759 10 215 0.0 1.6 0.00 0.00 0.00 57 1021.1
20230207232253 10 215 0.0 3.2 0.00 0.00 0.00 56 1021.1
20230207231746 10 219 1.6 3.2 0.00 0.00 0.00 56 1020.9
20230207231512 10 221 0.0 3.2 0.00 0.00 0.00 56 1020.9
20230207230736 10 212 0.0 3.2 0.00 0.00 0.00 55 1020.9
20230207230237 10 215 0.0 1.6 0.00 0.00 0.00 55 1021.0
20230207225736 10 215 0.0 0.0 0.00 0.00 0.00 55 1021.2
20230207225235 10 215 0.0 1.6 0.00 0.00 0.00 54 1021.2
20230207225010 10 215 0.0 3.2 0.00 0.00 0.00 54 1021.2
20230207224237 11 215 1.6 6.4 0.00 0.00 0.00 54 1021.3
20230207223735 11 223 1.6 6.4 0.00 0.00 0.00 53 1021.2
20230207223238 11 243 1.6 4.8 0.00 0.00 0.00 53 1021.3
20230207222738 11 300 1.6 4.8 0.00 0.00 0.00 53 1021.4
20230207222232 11 221 1.6 4.8 0.00 0.00 0.00 53 1021.3
20230207221733 11 215 1.6 4.8 0.00 0.00 0.00 52 1021.3
20230207221502 11 207 3.2 12.9 0.00 0.00 0.00 52 1021.4
20230207220733 11 240 3.2 12.9 0.00 0.00 0.00 52 1021.4
20230207220233 11 254 3.2 9.7 0.00 0.00 0.00 52 1021.6
20230207215732 11 284 3.2 9.7 0.00 0.00 0.00 52 1021.7
20230207215231 11 263 1.6 6.4 0.00 0.00 0.00 52 1021.7
20230207215006 11 215 1.6 9.7 0.00 0.00 0.00 52 1021.6
20230207214234 11 213 3.2 16.1 0.00 0.00 0.00 51 1021.5
20230207213729 11 279 3.2 16.1 0.00 0.00 0.00 52 1021.5
20230207213229 11 266 3.2 11.3 0.00 0.00 0.00 51 1021.7
20230207212728 11 274 3.2 9.7 0.00 0.00 0.00 51 1021.8
20230207212229 11 245 3.2 14.5 0.00 0.00 0.00 51 1022.0
20230207211729 11 306 4.8 14.5 0.00 0.00 0.00 51 1021.9
20230207211500 11 240 4.8 14.5 0.00 0.00 0.00 50 1021.8
20230207210728 11 96 4.8 14.5 0.00 0.00 0.00 50 1022.0
20230207210229 11 355 3.2 11.3 0.00 0.00 0.00 51 1022.1
20230207205729 11 268 4.8 11.3 0.00 0.00 0.00 50 1022.0
20230207205224 11 244 4.8 8.0 0.00 0.00 0.00 50 1022.2
20230207204723 11 330 3.2 9.7 0.00 0.00 0.00 51 1022.2
20230207204225 11 319 3.2 12.9 0.00 0.00 0.00 50 1022.2
20230207203725 11 287 3.2 12.9 0.00 0.00 0.00 49 1022.4
20230207203224 11 326 3.2 11.3 0.00 0.00 0.00 49 1022.2
20230207202952 11 221 3.2 12.9 0.00 0.00 0.00 50 1022.4
20230207202221 11 232 3.2 12.9 0.00 0.00 0.00 50 1022.4
20230207201719 12 306 3.2 12.9 0.00 0.00 0.00 48 1022.4
20230207201220 11 277 3.2 9.7 0.00 0.00 0.00 51 1022.4
20230207200722 11 275 4.8 9.7 0.00 0.00 0.00 50 1022.4
20230207200221 11 254 4.8 9.7 0.00 0.00 0.00 49 1022.5
20230207195719 11 323 4.8 12.9 0.00 0.00 0.00 50 1022.4
20230207195451 11 233 4.8 12.9 0.00 0.00 0.00 50 1022.6
20230207194725 11 261 4.8 11.3 0.00 0.00 0.00 51 1022.7
20230207194221 11 333 4.8 11.3 0.00 0.00 0.00 51 1022.8
20230207193720 11 215 3.2 9.7 0.00 0.00 0.00 51 1022.9
20230207193214 11 5 4.8 14.5 0.00 0.00 0.00 51 1022.9
20230207192708 11 259 4.8 14.5 0.00 0.00 0.00 51 1022.9
20230207192202 11 259 4.8 11.3 0.00 0.00 0.00 50 1023.2
20230207191657 11 65 4.8 11.3 0.00 0.00 0.00 51 1023.2
20230207191150 10 284 4.8 11.3 0.00 0.00 0.00 52 1023.4
20230207190914 11 232 3.2 11.3 0.00 0.00 0.00 52 1023.4
20230207190136 10 37 3.2 11.3 0.00 0.00 0.00 52 1023.4
20230207185630 10 251 3.2 8.0 0.00 0.00 0.00 52 1023.6
20230207185123 10 223 4.8 16.1 0.00 0.00 0.00 52 1023.5
20230207184618 10 238 3.2 16.1 0.00 0.00 0.00 53 1023.8
20230207184343 10 185 3.2 8.0 0.00 0.00 0.00 52 1023.9
20230207183608 10 298 3.2 11.3 0.00 0.00 0.00 52 1024.0
20230207183100 10 209 3.2 11.3 0.00 0.00 0.00 52 1024.1
20230207182553 10 333 3.2 11.3 0.00 0.00 0.00 52 1024.1
20230207182048 10 326 4.8 11.3 0.00 0.00 0.00 52 1024.1
20230207181542 11 283 4.8 11.3 0.00 0.00 0.00 50 1024.1
20230207181036 12 262 4.8 12.9 0.00 0.00 0.00 49 1024.0
20230207180530 11 196 4.8 12.9 0.00 0.00 0.00 51 1024.2
20230207180023 11 201 3.2 11.3 0.00 0.00 0.00 51 1024.2
20230207175750 11 229 4.8 20.9 0.00 0.00 0.00 51 1024.5
20230207175011 10 242 3.2 20.9 0.00 0.00 0.00 52 1024.7
20230207174506 9 251 3.2 11.3 0.00 0.00 0.00 55 1025.0
20230207174000 10 240 3.2 9.7 0.00 0.00 0.00 54 1025.1
20230207173453 10 284 3.2 11.3 0.00 0.00 0.00 53 1025.1
20230207172948 10 227 3.2 11.3 0.00 0.00 0.00 54 1025.0
20230207172442 10 207 3.2 8.0 0.00 0.00 0.00 52 1025.4
20230207171936 10 198 3.2 9.7 0.00 0.00 0.00 53 1025.4
20230207171430 10 259 4.8 9.7 0.00 0.00 0.00 57 1025.4
20230207170924 10 244 4.8 19.3 0.00 0.00 0.00 55 1025.5
20230207170420 9 277 6.4 19.3 0.00 0.00 0.00 56 1025.8
20230207165912 8 195 4.8 12.9 0.00 0.00 0.00 58 1025.8
20230207165406 8 226 4.8 12.9 0.00 0.00 0.00 57 1026.0
20230207164901 8 290 4.8 14.5 0.00 0.00 0.00 58 1026.2
20230207164353 8 277 3.2 14.5 0.00 0.00 0.00 58 1026.2
20230207163848 7 269 3.2 14.5 0.00 0.00 0.00 61 1026.6
20230207163342 7 279 4.8 14.5 0.00 0.00 0.00 64 1026.7